FW7766 Weather Reports


Display with metric or nautical units.
time (UTC)temp
F
wind
direction
speed
MPH
gust
MPH
rain 1hr
in
rain 24hr
in
rain mn
in
humidity
%
barometer
mb
20260510140602 69 0.0 0.0 0.00 0.00 0.00 45 1017.1
20260510135559 67 0.0 0.0 0.00 0.00 0.00 46 1017.2
20260510134555 66 270 0.0 1.0 0.00 0.00 0.00 47 1017.1
20260510133552 65 270 0.0 2.0 0.00 0.00 0.00 50 1017.0
20260510132548 64 0.0 0.0 0.00 0.00 0.00 51 1017.0
20260510131546 62 0.0 0.0 0.00 0.00 0.00 56 1016.9
20260510130542 61 0.0 0.0 0.00 0.00 0.00 60 1016.9
20260510125538 59 0.0 0.0 0.00 0.00 0.00 67 1016.9
20260510124535 58 0.0 0.0 0.00 0.00 0.00 71 1016.9
20260510123532 57 0.0 0.0 0.00 0.00 0.00 75 1016.7
20260510122528 56 0.0 0.0 0.00 0.00 0.00 76 1016.6
20260510121545 55 0.0 0.0 0.00 0.00 0.00 78 1016.4
20260510120521 54 0.0 0.0 0.00 0.00 0.00 77 1016.3
20260510115538 54 0.0 0.0 0.00 0.00 0.00 77 1016.1
20260510114655 54 0.0 0.0 0.00 0.00 0.00 81 1015.6
20260510113611 53 0.0 0.0 0.00 0.00 0.00 79 1015.5
20260510112608 53 0.0 0.0 0.00 0.00 0.00 80 1015.5
20260510111604 53 0.0 0.0 0.00 0.00 0.00 79 1015.4
20260510110601 53 0.0 0.0 0.00 0.00 0.00 79 1015.2
20260510105558 53 0.0 0.0 0.00 0.00 0.00 77 1015.2
20260510104554 53 0.0 0.0 0.00 0.00 0.00 77 1015.0
20260510103551 53 0.0 0.0 0.00 0.00 0.00 76 1014.7
20260510102548 53 0.0 0.0 0.00 0.00 0.00 75 1014.7
20260510101544 53 0.0 0.0 0.00 0.00 0.00 75 1014.5
20260510100541 54 0.0 0.0 0.00 0.00 0.00 75 1014.3
20260510095557 54 0.0 0.0 0.00 0.00 0.00 75 1014.3
20260510094534 54 0.0 0.0 0.00 0.00 0.00 75 1014.1
20260510093530 55 0.0 0.0 0.00 0.00 0.00 72 1014.1
20260510092607 55 0.0 0.0 0.00 0.00 0.00 71 1013.9
20260510091523 54 0.0 0.0 0.00 0.00 0.00 71 1013.9
20260510090520 55 0.0 0.0 0.00 0.00 0.00 71 1013.9
20260510085536 55 0.0 0.0 0.00 0.00 0.00 70 1013.9
20260510084613 55 0.0 0.0 0.00 0.00 0.00 70 1013.8
20260510083630 56 0.0 0.0 0.00 0.00 0.00 71 1013.9
20260510082607 56 0.0 0.0 0.00 0.00 0.00 71 1013.6
20260510081603 56 0.0 0.0 0.00 0.00 0.00 71 1013.4
20260510080600 56 0.0 0.0 0.00 0.00 0.00 71 1013.4
20260510075557 57 0.0 0.0 0.00 0.00 0.00 71 1013.2
20260510074613 57 0.0 0.0 0.00 0.00 0.00 70 1013.1
20260510073549 57 0.0 0.0 0.00 0.00 0.00 70 1013.1
20260510072546 57 0.0 0.0 0.00 0.00 0.00 70 1013.2
20260510071542 57 0.0 0.0 0.00 0.00 0.00 70 1013.0
20260510070540 57 0.0 0.0 0.00 0.00 0.00 69 1013.0
20260510065536 58 0.0 0.0 0.00 0.00 0.00 69 1012.9
20260510064533 58 0.0 0.0 0.00 0.00 0.00 69 1013.0
20260510063529 58 0.0 0.0 0.00 0.00 0.00 69 1013.2
20260510062606 58 0.0 0.0 0.00 0.00 0.00 68 1013.0
20260510061522 58 0.0 0.0 0.00 0.00 0.00 68 1013.2
20260510060519 59 0.0 0.0 0.00 0.00 0.00 68 1013.1
20260510055515 59 0.0 0.0 0.00 0.00 0.00 68 1013.2
20260510054612 59 0.0 0.0 0.00 0.00 0.00 68 1013.3
20260510053609 59 0.0 0.0 0.00 0.00 0.00 67 1013.2
20260510052606 60 0.0 0.0 0.00 0.00 0.00 68 1013.3
20260510051602 60 0.0 0.0 0.00 0.00 0.00 67 1013.3
20260510050559 60 0.0 0.0 0.00 0.00 0.00 67 1013.3
20260510045555 61 0.0 0.0 0.00 0.00 0.00 68 1013.4
20260510044551 61 0.0 0.0 0.00 0.00 0.00 68 1013.4
20260510043548 61 0.0 0.0 0.00 0.00 0.00 67 1013.4
20260510042545 61 0.0 0.0 0.00 0.00 0.00 67 1013.5
20260510041542 62 0.0 0.0 0.00 0.00 0.00 66 1013.2
20260510040538 62 0.0 0.0 0.00 0.00 0.00 66 1013.3
20260510035535 62 0.0 0.0 0.00 0.00 0.00 67 1013.3
20260510034531 62 0.0 0.0 0.00 0.00 0.00 65 1013.2
20260510033528 63 0.0 0.0 0.00 0.00 0.00 65 1013.4
20260510032524 64 0.0 0.0 0.00 0.00 0.00 61 1013.5
20260510031521 64 0.0 0.0 0.00 0.00 0.00 61 1013.4
20260510030517 64 0.0 0.0 0.00 0.00 0.00 61 1013.4
20260510025615 64 0.0 0.0 0.00 0.00 0.00 60 1013.2
20260510024611 64 0.0 0.0 0.00 0.00 0.00 60 1013.3
20260510023607 65 0.0 0.0 0.00 0.00 0.00 60 1013.2
20260510022604 65 0.0 0.0 0.00 0.00 0.00 60 1013.0
20260510021620 65 0.0 0.0 0.00 0.00 0.00 59 1012.9
20260510020557 66 0.0 0.0 0.00 0.00 0.00 58 1012.7
20260510015553 66 0.0 0.0 0.00 0.00 0.00 58 1012.5
20260510014550 66 0.0 0.0 0.00 0.00 0.00 58 1012.7
20260510013547 66 0.0 0.0 0.00 0.00 0.00 57 1012.6
20260510012543 67 0.0 0.0 0.00 0.00 0.00 57 1012.4
20260510011539 67 0.0 0.0 0.00 0.00 0.00 57 1012.2
20260510010536 67 0.0 0.0 0.00 0.00 0.00 56 1011.8
20260510005533 68 0.0 0.0 0.00 0.00 0.00 56 1011.9
20260510004529 68 0.0 0.0 0.00 0.00 0.00 56 1011.6
20260510003526 68 0.0 0.0 0.00 0.00 0.00 55 1011.4
20260510002522 69 0.0 0.0 0.00 0.00 0.00 55 1011.2
20260510001519 69 0.0 0.0 0.00 0.00 0.00 55 1011.3
20260510000535 69 0.0 0.0 0.00 0.00 0.00 55 1011.1
20260509235613 69 0.0 0.0 0.00 0.00 0.00 55 1011.2
20260509234609 70 0.0 0.0 0.00 0.00 0.00 53 1011.2
20260509233606 70 0.0 0.0 0.00 0.00 0.00 52 1011.1
20260509232602 71 0.0 0.0 0.00 0.00 0.00 51 1010.8
20260509231559 71 0.0 0.0 0.00 0.00 0.00 50 1010.7
20260509230555 71 0.0 0.0 0.00 0.00 0.00 48 1010.7
20260509225552 71 0.0 0.0 0.00 0.00 0.00 48 1010.5
20260509224629 72 0.0 0.0 0.00 0.00 0.00 48 1010.4
20260509223545 72 270 0.0 3.0 0.00 0.00 0.00 47 1010.3
20260509222542 73 270 0.0 2.0 0.00 0.00 0.00 46 1010.3
20260509221538 73 270 0.0 1.0 0.00 0.00 0.00 46 1010.5
20260509220535 73 0.0 1.0 0.00 0.00 0.00 45 1010.3
20260509215531 73 270 1.0 3.0 0.00 0.00 0.00 46 1010.3
20260509214528 73 270 1.0 2.0 0.00 0.00 0.00 45 1010.2
20260509213525 73 270 1.0 3.0 0.00 0.00 0.00 46 1010.2
20260509212541 74 270 1.0 3.0 0.00 0.00 0.00 45 1010.1
20260509211517 74 270 1.0 3.0 0.00 0.00 0.00 45 1010.1
20260509210614 74 195 0.0 1.0 0.00 0.00 0.00 45 1010.1
20260509205631 72 218 1.0 2.0 0.00 0.00 0.00 47 1009.9
20260509204627 72 180 0.0 1.0 0.00 0.00 0.00 46 1010.0
20260509203604 72 270 0.0 1.0 0.00 0.00 0.00 46 1010.1
20260509202601 73 270 1.0 3.0 0.00 0.00 0.00 45 1010.1
20260509201557 75 236 1.0 3.0 0.00 0.00 0.00 44 1010.2
20260509200634 74 0.0 1.0 0.00 0.00 0.00 46 1010.2
20260509195550 73 249 2.0 3.0 0.00 0.00 0.00 45 1010.2
20260509194607 74 217 0.0 2.0 0.00 0.00 0.00 45 1010.4
20260509193544 74 270 0.0 3.0 0.00 0.00 0.00 46 1010.5
20260509192601 73 225 1.0 2.0 0.00 0.00 0.00 46 1010.9
20260509191537 72 255 1.0 3.0 0.00 0.00 0.00 46 1010.8
20260509190553 73 243 1.0 2.0 0.00 0.00 0.00 45 1010.7
20260509185550 73 270 1.0 3.0 0.00 0.00 0.00 45 1010.7
20260509184527 73 225 1.0 2.0 0.00 0.00 0.00 45 1010.6
20260509183523 72 215 1.0 2.0 0.00 0.00 0.00 46 1010.7
20260509182540 71 225 1.0 2.0 0.00 0.00 0.00 47 1011.0
20260509181516 72 270 1.0 3.0 0.00 0.00 0.00 45 1011.1
20260509180613 71 180 1.0 2.0 0.00 0.00 0.00 46 1011.3
20260509175610 70 0.0 0.0 0.00 0.00 0.00 46 1011.5
20260509174606 70 270 1.0 2.0 0.00 0.00 0.00 47 1011.6
20260509173603 71 270 1.0 2.0 0.00 0.00 0.00 45 1011.7
20260509172600 70 270 1.0 2.0 0.00 0.00 0.00 48 1011.6
20260509171557 70 263 1.0 3.0 0.00 0.00 0.00 46 1011.7
20260509170553 70 270 2.0 3.0 0.00 0.00 0.00 47 1011.8
20260509165549 69 270 1.0 2.0 0.00 0.00 0.00 48 1012.0
20260509164546 71 270 2.0 3.0 0.00 0.00 0.00 45 1012.2
20260509163543 73 270 1.0 3.0 0.00 0.00 0.00 43 1012.5
20260509162559 73 270 2.0 3.0 0.00 0.00 0.00 42 1012.4
20260509161536 73 270 1.0 3.0 0.00 0.00 0.00 44 1012.5
20260509160532 72 270 1.0 1.0 0.00 0.00 0.00 46 1012.7
20260509155549 71 270 1.0 2.0 0.00 0.00 0.00 47 1012.7
20260509154526 69 225 0.0 1.0 0.00 0.00 0.00 49 1012.7
20260509153602 67 270 0.0 2.0 0.00 0.00 0.00 53 1012.8
20260509152519 67 270 0.0 1.0 0.00 0.00 0.00 53 1012.6
20260509151515 66 0.0 0.0 0.00 0.00 0.00 53 1012.8
20260509150612 66 270 0.0 1.0 0.00 0.00 0.00 55 1012.8
20260509145609 65 0.0 0.0 0.00 0.00 0.00 56 1012.9
20260509144605 64 270 0.0 1.0 0.00 0.00 0.00 56 1013.0
20260509143602 63 180 0.0 3.0 0.00 0.00 0.00 57 1013.0
20260509142558 63 180 0.0 2.0 0.00 0.00 0.00 58 1012.8
20260509141614 62 0.0 0.0 0.00 0.00 0.00 59 1013.0